This demonstration page uses our WeatherBlox Daily Observations layout. Learn more.

Left ArrowRight Arrow

39.51506, -84.39828

Hourly Observations for July 28, 2015

Temp ( °F °C ) Dew Point ( °F °C ) Humidity (%) Winds ( mph kmh ) Pressure ( in mb ) Visibility ( mi km ) Precip ( " mm )
12:15 am 00:15 Cloudy with Mist and Fog 74 23.6 71 21.7 89 89 N N/A 30.00 1016 5 8 N/A
12:35 am 00:35 Mostly Cloudy with Mist and Fog 74 23.6 71 21.8 90 90 N N/A 30.00 1016 5 8 N/A
12:55 am 00:55 Mostly Cloudy with Mist and Fog 74 23.6 71 21.7 89 89 N N/A 30.00 1016 5 8 N/A
1:15 am 01:15 Cloudy 74 23.6 71 21.6 89 89 N N/A 29.97 1015 7 11 N/A
1:35 am 01:35 Mostly Cloudy 74 23.6 71 21.6 89 89 N N/A 29.97 1015 7 11 N/A
1:55 am 01:55 Partly Cloudy 74 23.6 71 21.6 89 89 N N/A 29.97 1015 7 11 N/A
2:15 am 02:15 Clear with Mist and Fog 74 23.6 71 21.5 88 88 N N/A 29.97 1015 5 8 N/A
2:35 am 02:35 Clear with Mist and Fog 74 23.6 71 21.7 89 89 N N/A 29.97 1015 4 6 N/A
2:55 am 02:55 Clear with Mist and Fog 74 23.6 71 21.7 89 89 N N/A 29.97 1015 3 4 N/A
3:15 am 03:15 Clear with Mist and Fog 74 23.6 72 22 91 91 N N/A 29.97 1015 3 5 N/A
3:35 am 03:35 Clear with Mist and Fog 74 23.4 71 21.9 91 91 N N/A 29.94 1014 4 6 N/A
3:55 am 03:55 Clear with Mist and Fog 72 22.3 69 20.8 91 91 NNE 3 6 29.97 1015 3 5 N/A
4:15 am 04:15 Clear with Mist and Fog 72 22.3 69 20.8 91 91 N N/A 29.97 1015 4 6 N/A
4:35 am 04:35 Clear with Mist and Fog 72 22.3 69 20.8 91 91 N N/A 29.97 1015 4 6 N/A
4:55 am 04:55 Clear with Mist and Fog 72 22.3 69 20.8 91 91 N N/A 29.97 1015 4 6 N/A
5:15 am 05:15 Clear with Mist and Fog 72 22.3 69 20.8 91 91 N 3 6 29.97 1015 5 8 N/A
5:35 am 05:35 Partly Cloudy with Mist and Fog 72 22.3 69 20.8 91 91 N N/A 29.97 1015 5 8 N/A
5:55 am 05:55 Partly Cloudy 74 23.6 72 22 91 91 N N/A 29.97 1015 7 11 N/A
6:15 am 06:15 Partly Cloudy 74 23.6 72 22 91 91 N N/A 29.97 1015 7 11 N/A
6:35 am 06:35 Partly Cloudy with Mist and Fog 72 22.3 69 20.6 90 90 N N/A 29.97 1015 4 6 N/A
6:55 am 06:55 Partly Cloudy with Mist and Fog 72 22 69 20.5 91 91 N N/A 30.00 1016 4 6 N/A
7:15 am 07:15 Partly Cloudy with Mist and Fog 73 23 71 21.5 91 91 N N/A 30.00 1016 4 6 N/A
7:35 am 07:35 Mostly Cloudy with Mist and Fog 74 23.6 72 22 91 91 N N/A 30.00 1016 4 6 N/A
7:55 am 07:55 Partly Cloudy with Mist and Fog 74 23.6 71 21.9 90 90 N N/A 30.00 1016 4 6 N/A
8:15 am 08:15 Partly Cloudy with Mist and Fog 74 23.6 71 21.7 89 89 N N/A 30.00 1016 5 8 N/A
8:35 am 08:35 Partly Cloudy 74 23.6 71 21.6 89 89 N N/A 30.00 1016 7 11 N/A
8:55 am 08:55 Partly Cloudy 77 25.1 73 22.6 86 86 ENE 3 6 30.00 1016 7 11 N/A
9:15 am 09:15 Sunny 77 25.2 72 22.4 85 85 N N/A 30.00 1016 7 11 N/A
9:35 am 09:35 Sunny 80 26.5 74 23.5 84 84 N 3 6 30.00 1016 10 16 N/A
9:55 am 09:55 Sunny 80 26.6 74 23.1 81 81 N N/A 30.00 1016 10 16 N/A
10:15 am 10:15 Sunny 81 27.2 74 23.2 79 79 N N/A 30.00 1016 10 16 N/A
10:35 am 10:35 Sunny 83 28.1 74 23.6 77 77 NNE 5 7 30.00 1016 10 16 N/A
10:55 am 10:55 Partly Cloudy 83 28.6 74 23.5 74 74 ENE 3 6 29.97 1015 10 16 N/A
11:15 am 11:15 Sunny 85 29.2 73 22.5 67 67 N N/A 29.94 1014 10 16 N/A
11:35 am 11:35 Partly Cloudy 89 31.7 77 25.2 68 68 SSE 3 6 29.94 1014 10 16 N/A
11:55 am 11:55 Mostly Cloudy 90 32.1 76 24.7 65 65 ENE 3 6 29.94 1014 10 16 N/A
12:15 pm 12:15 Mostly Cloudy 85 29.6 74 23.2 69 69 N N/A 29.97 1015 10 16 N/A
12:35 pm 12:35 Cloudy 83 28.6 72 22 68 68 W 3 6 29.97 1015 10 16 N/A
12:55 pm 12:55 Cloudy 84 28.8 72 22 67 67 N N/A 29.97 1015 10 16 N/A
1:15 pm 13:15 Partly Cloudy 90 32.1 76 24.6 65 65 N N/A 29.94 1014 10 16 N/A
1:35 pm 13:35 Sunny 90 32.1 76 24.3 63 63 WNW 3 6 29.94 1014 10 16 N/A
1:55 pm 13:55 Sunny 90 32.1 74 23.5 60 60 N N/A 29.94 1014 10 16 N/A
2:15 pm 14:15 Sunny 90 32.1 72 22.4 57 57 N 5 7 29.94 1014 10 16 N/A
2:35 pm 14:35 Sunny 90 32.1 70 21.3 53 53 ENE 3 6 29.94 1014 10 16 N/A
2:55 pm 14:55 Sunny 90 32.1 70 21 52 52 N N/A 29.94 1014 10 16 N/A
3:15 pm 15:15 Partly Cloudy 90 32.1 71 21.8 54 54 N 3 6 29.94 1014 10 16 N/A
3:35 pm 15:35 Partly Cloudy 90 32.1 71 21.6 54 54 NNE 6 9 29.91 1013 10 16 N/A
3:55 pm 15:55 Partly Cloudy 90 32.1 71 21.4 53 53 N 3 6 29.91 1013 10 16 N/A
4:15 pm 16:15 Sunny 90 32.1 70 21.2 53 53 N N/A 29.91 1013 10 16 N/A
4:35 pm 16:35 Partly Cloudy 92 33.5 74 23.1 54 54 ENE 6 9 29.91 1013 10 16 N/A
4:55 pm 16:55 Mostly Cloudy 90 32.1 73 22.5 57 57 NNE 6 9 29.91 1013 N/A N/A
5:15 pm 17:15 Mostly Cloudy 90 32.1 74 23.6 61 61 NE 6 9 29.91 1013 N/A N/A
5:35 pm 17:35 Mostly Cloudy 90 32.1 74 23.6 61 61 NE 5 7 29.91 1013 10 16 N/A
5:55 pm 17:55 Partly Cloudy 90 32.1 73 22.9 58 58 N N/A 29.91 1013 10 16 N/A
6:15 pm 18:15 Sunny 90 32.1 71 21.8 54 54 NNE 5 7 29.91 1013 N/A N/A
6:35 pm 18:35 Sunny 90 32.1 70 21.2 53 53 ENE 3 6 29.91 1013 N/A N/A
6:55 pm 18:55 Sunny 90 32.1 71 21.4 53 53 N N/A 29.88 1012 N/A N/A
7:15 pm 19:15 Sunny 90 32.1 71 21.6 54 54 N N/A 29.88 1012 N/A N/A
7:35 pm 19:35 Sunny 90 32.1 73 22.7 58 58 N N/A 29.88 1012 10 16 N/A
7:55 pm 19:55 Sunny 90 32.1 74 23.3 60 60 ESE 5 7 29.88 1012 N/A N/A
8:15 pm 20:15 Sunny 90 32.1 74 23.3 60 60 N N/A 29.88 1012 N/A N/A
8:35 pm 20:35 Sunny 84 28.8 71 21.5 65 65 E 5 7 29.88 1012 N/A N/A
8:55 pm 20:55 Clear 84 28.9 71 21.5 64 64 E 5 7 29.88 1012 N/A N/A
9:15 pm 21:15 Clear 81 27.3 73 22.8 76 76 N N/A 29.91 1013 10 16 N/A
9:35 pm 21:35 Clear 80 26.5 74 23.6 84 84 N N/A 29.94 1014 10 16 N/A
9:55 pm 21:55 Clear 78 25.5 73 22.8 85 85 N 3 6 29.94 1014 10 16 N/A
10:15 pm 22:15 Clear 77 25.1 73 22.5 86 86 N N/A 29.94 1014 7 11 N/A
10:35 pm 22:35 Clear 77 25.1 73 22.7 87 87 NW 3 6 29.97 1015 7 11 N/A
10:55 pm 22:55 Clear 77 25.1 73 22.7 87 87 N N/A 29.97 1015 7 11 N/A
11:15 pm 23:15 Clear 77 25.1 73 22.8 87 87 N N/A 30.00 1016 7 11 N/A
11:35 pm 23:35 Partly Cloudy with Mist and Fog 77 25.1 73 23 88 88 N N/A 30.00 1016 5 8 N/A
11:55 pm 23:55 Mostly Cloudy with Mist and Fog 77 25.1 73 23 88 88 N N/A 30.00 1016 5 8 N/A

Powered by AerisWeather